Flag for Tunisia Weather past 2 weeks in Sfax, Tunisia

Now
88 °F

Scattered clouds.


Feels Like: 94 °F
Forecast: 76 / 88 °F
Wind: 12 mph from Southeast

Location: Sfax El-Maou

Current Time: Jul 29, 2014 at 4:51:32 PM

Latest Report: Jul 29, 2014 at 4:00 PM


Visibility: N/A

Pressure: 29.74 "Hg

Humidity: 59%

Dew point: 72 °F

Location of SfaxLocation

Historic Weather in Sfax — Graph

°F

Sfax temperature yesterday

Maximum temperature yesterday: 88 °F (at 10:00 AM)
Minimum temperature yesterday: 73 °F (at 4:00 AM)
Average temperature yesterday: 81 °F

Past Weeks' High & Low Weather Summary

 TemperatureHumidityPressure
High106 °F (Jul 26, 9:00 PM)89% (Jul 25, 6:00 AM)30.09 "Hg (Jul 25, 6:00 AM)
Low68 °F (Jul 16, 5:00 AM)12% (Jul 26, 9:00 PM)29.77 "Hg (Jul 26, 3:00 PM)
Average82 °F59%29.96 "Hg
* Reported Jul 14 3:00 PM — Jul 29 3:00 PM, Sfax, Weather by CustomWeather, © 2014

Note: Actual official high and low records may vary slightly from our data, if they occured in-between our weather recording intervals... More about our weather records

Advertising

Sfax weather history for previous 24 hours

 ConditionsComfort  
Time TempWeatherWind HumidityBarometerVisibility
3:00 PM
Jul 29
88 °FScattered clouds.9 mph55%29.77 "HgN/A
2:00 PM88 °FScattered clouds.12 mph59%29.77 "HgN/A
1:00 PM88 °FScattered clouds.12 mph59%29.80 "HgN/A
12:00 PM88 °FScattered clouds.13 mph52%29.83 "HgN/A
11:00 AM88 °FScattered clouds.10 mph52%29.86 "HgN/A
10:00 AM86 °FScattered clouds.10 mph52%29.86 "HgN/A
9:00 AM82 °FScattered clouds.5 mph62%29.86 "HgN/A
8:00 AM81 °FSunny.1 mph66%29.86 "Hg10 mi
7:00 AM77 °FSunny.2 mph69%29.86 "Hg10 mi
6:00 AM72 °FSunny.2 mph78%29.86 "Hg10 mi
5:00 AM72 °FClear.3 mph78%29.89 "Hg10 mi
4:00 AM73 °FClear.3 mph74%29.89 "Hg10 mi
3:00 AM73 °FClear.7 mph74%29.92 "Hg10 mi
2:00 AM75 °FClear.2 mph74%29.89 "Hg10 mi
1:00 AM77 °FClear.1 mph69%29.89 "Hg10 mi
12:00 AM77 °FClear.2 mph69%29.92 "Hg10 mi
11:00 PM
Jul 28
79 °FClear.6 mph70%29.95 "Hg10 mi
9:00 PM81 °FClear.8 mph58%29.95 "Hg10 mi
8:00 PM81 °FClear.9 mph62%29.92 "Hg10 mi
7:00 PM81 °FSunny.12 mph66%29.92 "Hg10 mi
6:00 PM84 °FSunny.13 mph58%29.92 "Hg10 mi
5:00 PM84 °FPassing clouds.14 mph55%29.92 "HgN/A
4:00 PM86 °FPassing clouds.14 mph52%29.95 "HgN/A
Weather by CustomWeather, © 2014

See weather overviewHow to use our weather pages